Laramie, WY

7:36 PM MDT on August 29, 2016 (GMT -0600)
Laramie Regional

Weather History for KLAR - November, 2013

Change the Weather History Date:

Wednesday, November 6, 2013

  Actual Average Record
Temperature  
Mean Temperature 26 °F 34 °F  
Max Temperature 34 °F 46 °F 67 °F (1999)
Min Temperature 17 °F 21 °F -6 °F (1967)
Degree Days  
Heating Degree Days 39 31  
Month to date heating degree days 211 180  
Since 1 July heating degree days 1352 1423  
Cooling Degree Days 0 0  
Month to date cooling degree days 0 0  
Year to date cooling degree days 162 67  
Moisture  
Dew Point 17 °F    
Average Humidity 63    
Maximum Humidity 74    
Minimum Humidity 51    
Precipitation  
Precipitation 0.00 in 0.02 in 0.30 in (1986)
Month to date precipitation 0.18 0.13  
Year to date precipitation 10.86 10.19  
Sea Level Pressure  
Sea Level Pressure 30.31 in    
Wind  
Wind Speed 19 mph (WSW)    
Max Wind Speed 33 mph    
Max Gust Speed 45 mph    
Visibility 10 miles    
Events      
T = Trace of Precipitation, MM = Missing Value Source: NWS Daily Summary

Daily Weather History Graph

Daily Weather History Graph

Search for Another Location

Airport or City:

Trip Planner

Search our weather history database for the weather conditions in past years. The results will help you decide how hot, cold, wet, or windy it might be!

Date:

Astronomy

Nov. 06, 2013 Rise Set
Actual Time 6:40 AM MST 4:51 PM MST
Civil Twilight 6:11 AM MST 5:20 PM MST
Nautical Twilight 5:38 AM MST 5:53 PM MST
Astronomical Twilight 5:06 AM MST 6:25 PM MST
Moon 9:58 AM MST (11/6) 7:58 PM MST (11/6)
Length of Visible Light 11h 09m
Length of Day
10h 11m
Waxing Crescent, 14% of the Moon is Illuminated
Nov 6
Waxing Crescent
Nov 9
First Quarter
Nov 17
Full
Nov 25
Last Quarter
Dec 2
New

Hourly Weather History & Observations

Time (MST) Temp. Windchill Dew Point Humidity Pressure Visibility Wind Dir Wind Speed Gust Speed Precip Events Conditions
12:53 AM 18.0 °F 0.2 °F 8.1 °F 65% 30.22 in 10.0 mi SW 24.2 mph - N/A   Clear
1:53 AM 18.0 °F 0.6 °F 8.1 °F 65% 30.24 in 10.0 mi SW 23.0 mph - N/A   Clear
2:53 AM 19.0 °F 1.0 °F 10.0 °F 68% 30.25 in 10.0 mi SW 26.5 mph 32.2 mph N/A   Clear
3:53 AM 19.0 °F 1.3 °F 10.9 °F 71% 30.25 in 10.0 mi SW 25.3 mph 32.2 mph N/A   Clear
4:53 AM 19.9 °F 3.9 °F 12.0 °F 71% 30.28 in 10.0 mi WSW 20.7 mph 27.6 mph N/A   Clear
5:53 AM 21.9 °F 5.1 °F 14.0 °F 72% 30.30 in 10.0 mi WSW 25.3 mph - N/A   Overcast
6:53 AM 23.0 °F 9.2 °F 15.1 °F 72% 30.29 in 10.0 mi WSW 17.3 mph 21.9 mph N/A   Overcast
7:53 AM 23.0 °F 9.6 °F 16.0 °F 74% 30.32 in 10.0 mi SSW 16.1 mph - N/A   Overcast
8:53 AM 24.1 °F 11.0 °F 17.1 °F 75% 30.32 in 10.0 mi SW 16.1 mph - N/A   Scattered Clouds
9:53 AM 27.0 °F 16.7 °F 18.0 °F 69% 30.32 in 10.0 mi SW 11.5 mph 21.9 mph N/A   Mostly Cloudy
10:53 AM 28.9 °F 15.1 °F 19.9 °F 69% 30.30 in 10.0 mi WSW 23.0 mph - N/A   Clear
11:53 AM 30.0 °F 16.3 °F 21.0 °F 69% 30.27 in 10.0 mi West 24.2 mph 28.8 mph N/A   Clear
12:53 PM 30.9 °F 17.2 °F 21.9 °F 69% 30.27 in 10.0 mi West 25.3 mph - N/A   Clear
1:53 PM 30.9 °F 16.4 °F 21.9 °F 69% 30.28 in 10.0 mi WNW 28.8 mph 33.4 mph N/A   Clear
2:53 PM 32.0 °F 22.1 °F 21.9 °F 66% 30.28 in 10.0 mi WNW 13.8 mph - N/A   Clear
3:53 PM 30.9 °F 21.2 °F 21.0 °F 67% 30.30 in 10.0 mi West 12.7 mph - N/A   Scattered Clouds
4:53 PM 26.1 °F 16.2 °F 18.0 °F 71% 30.34 in 10.0 mi West 10.4 mph - N/A   Partly Cloudy
5:53 PM 28.9 °F 20.4 °F 18.0 °F 64% 30.33 in 10.0 mi WSW 9.2 mph - N/A   Clear
6:53 PM 27.0 °F 16.7 °F 17.1 °F 66% 30.36 in 10.0 mi WSW 11.5 mph - N/A   Clear
7:53 PM 27.0 °F 16.7 °F 18.0 °F 69% 30.38 in 10.0 mi SSW 11.5 mph - N/A   Overcast
8:53 PM 30.0 °F 17.9 °F 19.9 °F 66% 30.37 in 10.0 mi SW 18.4 mph - N/A   Mostly Cloudy
9:53 PM 33.1 °F 20.3 °F 18.0 °F 54% 30.34 in 10.0 mi West 24.2 mph 42.6 mph N/A   Clear
10:53 PM 33.1 °F 21.5 °F 18.0 °F 54% 30.34 in 10.0 mi WNW 19.6 mph 33.4 mph N/A   Clear
11:53 PM 32.0 °F 20.1 °F 19.9 °F 61% 30.37 in 10.0 mi West 19.6 mph 25.3 mph N/A   Overcast